Flag for USA

Past Weather in 38°14'56"N, 93°21'25"W, USA — Yesterday and Last 2 Weeks

Now
77 °F

Clear.


Feels Like: 79 °F
Forecast: 86 / 71 °F
Wind: 8 mph from Southeast

Location: Jefferson City Memorial Airport
Current Time: Aug 13, 2020 at 12:40:12 am
Latest Report: Aug 12, 2020 at 11:53 pm
Visibility: 10 mi
Pressure29.97 "Hg
Humidity: 79%
Dew Point: 70 °F
Location of 38°14'56"N, 93°21'25"WLocation

Past Weather in 38°14'56"N, 93°21'25"W — Graph

°F

38°14'56"N, 93°21'25"W Temperature Yesterday

Maximum temperature yesterday: 89 °F (at 3:53 pm)
Minimum temperature yesterday: 71 °F (at 5:53 am)
Average temperature yesterday: 80 °F

High & Low Weather Summary for the Past Weeks

 TemperatureHumidityPressure
High94 °F (Aug 10, 2:53 pm)93% (Aug 5, 6:53 am)30.14 "Hg (Aug 5, 6:53 am)
Low57 °F (Aug 5, 5:35 am)45% (Aug 5, 3:53 pm)29.73 "Hg (Jul 30, 4:53 am)
Average74 °F75%29.95 "Hg
* Reported Jul 28 10:53 pm — Aug 12 10:53 pm, 38°14'56"N, 93°21'25"W. Weather by CustomWeather, © 2020

Note: Actual official high and low records may vary slightly from our data, if they occured in-between our weather recording intervals... More about our weather records

38°14'56"N, 93°21'25"W Weather History for the Previous 24 Hours

Scroll right to see more
 ConditionsComfort  
Time TempWeatherWind HumidityBarometerVisibility
10:53 pm
Wed, Aug 12
78 °FClear.7 mph76%29.97 "Hg10 mi
9:53 pm80 °FPassing clouds.5 mph74%29.97 "Hg10 mi
8:53 pm82 °FPassing clouds.7 mph70%29.95 "Hg10 mi
7:53 pm84 °FSunny.5 mph67%29.93 "Hg10 mi
6:53 pm87 °FSunny.6 mph59%29.90 "Hg10 mi
5:53 pm88 °FSunny.7 mph54%29.90 "Hg10 mi
4:53 pm88 °FSunny.9 mph55%29.90 "Hg10 mi
3:53 pm89 °FSunny.7 mph53%29.93 "Hg10 mi
2:53 pm87 °FSunny.5 mph53%29.96 "Hg10 mi
1:53 pm86 °FSunny.7 mph55%29.98 "Hg10 mi
12:53 pm86 °FSunny.8 mph57%29.99 "Hg10 mi
11:53 am84 °FSunny.5 mph55%29.99 "Hg10 mi
10:53 am82 °FSunny.3 mph70%29.99 "Hg10 mi
9:53 am80 °FSunny.3 mph71%30.00 "Hg10 mi
8:53 am76 °FSunny.No wind80%30.01 "Hg10 mi
7:53 am73 °FPassing clouds.3 mph88%30.01 "Hg10 mi
6:53 am71 °FPassing clouds.No wind87%30.01 "Hg10 mi
5:53 am71 °FClear.No wind90%29.98 "Hg10 mi
4:53 am72 °FClear.No wind87%29.96 "Hg10 mi
3:53 am73 °FClear.6 mph88%29.95 "Hg10 mi
2:53 am73 °FOvercast.3 mph88%29.96 "Hg10 mi
1:53 am74 °FClear.3 mph88%29.96 "Hg10 mi
12:53 am74 °FPassing clouds.5 mph88%29.96 "Hg10 mi
Weather by CustomWeather, © 2020

See weather overview